TimeCST,TemperatureF,Dew PointF,Humidity,Sea Level PressureIn,VisibilityMPH,Wind Direction,Wind SpeedMPH,Gust SpeedMPH,PrecipitationIn,Events,Conditions,WindDirDegrees,DateUTC
12:11 AM,28.4,28.4,100,30.26,2.5,Calm,Calm,-,N/A,,Clear,0,2013-01-26 06:11:00
12:17 AM,26.6,26.6,100,30.27,3.0,Calm,Calm,-,N/A,,Clear,0,2013-01-26 06:17:00
12:31 AM,26.6,26.6,100,30.27,2.5,Calm,Calm,-,N/A,,Clear,0,2013-01-26 06:31:00
12:41 AM,28.4,28.4,100,30.28,1.8,Calm,Calm,-,N/A,,Clear,0,2013-01-26 06:41:00
12:43 AM,28.4,28.4,100,30.27,1.2,Calm,Calm,-,N/A,,Clear,0,2013-01-26 06:43:00
12:45 AM,28.4,28.4,100,30.27,1.0,Calm,Calm,-,N/A,,Clear,0,2013-01-26 06:45:00
12:48 AM,28.4,28.4,100,30.28,0.8,Calm,Calm,-,N/A,,Clear,0,2013-01-26 06:48:00
12:49 AM,28.4,28.4,100,30.28,0.8,Calm,Calm,-,N/A,,Clear,0,2013-01-26 06:49:00
12:54 AM,28.4,28.4,100,30.28,0.5,Calm,Calm,-,N/A,Fog,Light Freezing Fog,0,2013-01-26 06:54:00
12:55 AM,27.7,27.5,99,30.28,0.5,Calm,Calm,-,N/A,Fog,Light Freezing Fog,0,2013-01-26 06:55:00
12:58 AM,26.6,26.6,100,30.28,0.5,Calm,Calm,-,N/A,Fog,Light Freezing Fog,0,2013-01-26 06:58:00
1:00 AM,26.6,26.6,100,30.28,0.2,Calm,Calm,-,N/A,Fog,Light Freezing Fog,0,2013-01-26 07:00:00
1:02 AM,26.6,26.6,100,30.28,0.2,Calm,Calm,-,N/A,Fog,Light Freezing Fog,0,2013-01-26 07:02:00
1:12 AM,26.6,26.6,100,30.28,0.2,Calm,Calm,-,N/A,Fog,Light Freezing Fog,0,2013-01-26 07:12:00
1:13 AM,26.6,26.6,100,30.28,0.5,Calm,Calm,-,N/A,Fog,Light Freezing Fog,0,2013-01-26 07:13:00
1:16 AM,26.6,26.6,100,30.27,0.8,Calm,Calm,-,N/A,,Clear,0,2013-01-26 07:16:00
1:21 AM,26.6,26.6,100,30.27,4.0,Calm,Calm,-,N/A,,Clear,0,2013-01-26 07:21:00
1:55 AM,27.1,27.1,100,30.27,6.0,Calm,Calm,-,N/A,,Clear,0,2013-01-26 07:55:00
2:38 AM,26.6,26.6,100,30.28,5.0,Calm,Calm,-,N/A,,Partly Cloudy,0,2013-01-26 08:38:00
2:55 AM,26.1,26.1,100,30.28,7.0,Calm,Calm,-,N/A,,Partly Cloudy,0,2013-01-26 08:55:00
3:15 AM,26.6,26.6,100,30.28,2.5,Calm,Calm,-,N/A,,Clear,0,2013-01-26 09:15:00
3:17 AM,26.6,26.6,100,30.28,1.8,Calm,Calm,-,N/A,,Clear,0,2013-01-26 09:17:00
3:19 AM,26.6,26.6,100,30.29,1.2,Calm,Calm,-,N/A,,Clear,0,2013-01-26 09:19:00
3:21 AM,26.6,26.6,100,30.29,1.0,Calm,Calm,-,N/A,,Clear,0,2013-01-26 09:21:00
3:28 AM,24.8,24.8,100,30.29,1.5,Calm,Calm,-,N/A,,Clear,0,2013-01-26 09:28:00
3:42 AM,24.8,24.8,100,30.29,2.0,Calm,Calm,-,N/A,,Clear,0,2013-01-26 09:42:00
3:49 AM,24.8,24.8,100,30.29,3.0,SW,3.5,-,N/A,,Clear,220,2013-01-26 09:49:00
3:55 AM,24.6,24.6,100,30.29,4.0,SW,3.5,-,N/A,,Clear,230,2013-01-26 09:55:00
4:35 AM,26.6,26.6,100,30.28,2.0,Calm,Calm,-,N/A,,Clear,0,2013-01-26 10:35:00
4:37 AM,26.6,26.6,100,30.27,1.8,Calm,Calm,-,N/A,,Clear,0,2013-01-26 10:37:00
4:40 AM,26.6,26.6,100,30.28,1.2,Calm,Calm,-,N/A,,Clear,0,2013-01-26 10:40:00
4:45 AM,26.6,26.6,100,30.28,1.5,Calm,Calm,-,N/A,,Clear,0,2013-01-26 10:45:00
4:49 AM,26.6,26.6,100,30.28,2.0,Calm,Calm,-,N/A,,Clear,0,2013-01-26 10:49:00
4:51 AM,26.6,26.6,100,30.28,3.0,Calm,Calm,-,N/A,,Clear,0,2013-01-26 10:51:00
4:55 AM,26.2,26.2,100,30.28,4.0,Calm,Calm,-,N/A,,Clear,0,2013-01-26 10:55:00
5:00 AM,26.6,26.6,100,30.29,2.5,Calm,Calm,-,N/A,,Clear,0,2013-01-26 11:00:00
5:05 AM,26.6,26.6,100,30.29,1.8,Calm,Calm,-,N/A,,Clear,0,2013-01-26 11:05:00
5:07 AM,26.6,26.6,100,30.29,2.0,Calm,Calm,-,N/A,,Clear,0,2013-01-26 11:07:00
5:12 AM,26.6,26.6,100,30.29,3.0,Calm,Calm,-,N/A,,Clear,0,2013-01-26 11:12:00
5:55 AM,26.6,26.6,100,30.31,6.0,Calm,Calm,-,N/A,,Clear,0,2013-01-26 11:55:00
6:55 AM,27.1,27.0,99,30.32,5.0,Calm,Calm,-,N/A,,Clear,0,2013-01-26 12:55:00
7:55 AM,25.3,25.3,100,30.34,6.0,Calm,Calm,-,N/A,,Clear,0,2013-01-26 13:55:00
8:55 AM,30.0,30.0,100,30.35,4.0,Calm,Calm,-,N/A,,Clear,0,2013-01-26 14:55:00
9:55 AM,34.3,33.3,96,30.36,10.0,North,8.1,-,N/A,,Clear,350,2013-01-26 15:55:00
10:55 AM,36.9,30.7,79,30.37,10.0,North,4.6,-,N/A,,Partly Cloudy,360,2013-01-26 16:55:00
11:55 AM,39.6,29.1,66,30.35,10.0,Calm,Calm,-,N/A,,Clear,0,2013-01-26 17:55:00
12:55 PM,41.4,28.8,61,30.34,10.0,Variable,3.5,-,N/A,,Clear,0,2013-01-26 18:55:00
1:55 PM,41.5,28.2,59,30.33,10.0,Calm,Calm,-,N/A,,Clear,0,2013-01-26 19:55:00
2:55 PM,42.4,28.6,58,30.33,10.0,North,5.8,-,N/A,,Clear,360,2013-01-26 20:55:00
3:55 PM,42.8,28.4,57,30.32,10.0,NNE,4.6,-,N/A,,Clear,30,2013-01-26 21:55:00
4:55 PM,40.8,28.9,63,30.34,10.0,ENE,4.6,-,N/A,,Clear,60,2013-01-26 22:55:00
5:55 PM,37.0,29.3,74,30.35,10.0,ENE,3.5,-,N/A,,Mostly Cloudy,70,2013-01-26 23:55:00
6:55 PM,32.5,28.4,85,30.36,10.0,NE,6.9,-,N/A,,Mostly Cloudy,50,2013-01-27 00:55:00
7:55 PM,31.1,27.0,85,30.37,10.0,NE,6.9,-,N/A,,Clear,50,2013-01-27 01:55:00
8:55 PM,30.6,26.4,85,30.37,10.0,ENE,6.9,-,N/A,,Clear,60,2013-01-27 02:55:00
9:55 PM,32.7,28.2,83,30.37,10.0,East,8.1,-,N/A,,Clear,80,2013-01-27 03:55:00
10:55 PM,31.1,28.0,88,30.37,10.0,East,6.9,-,N/A,,Clear,80,2013-01-27 04:55:00
11:55 PM,30.4,28.4,92,30.36,10.0,East,8.1,-,N/A,,Clear,100,2013-01-27 05:55:00